{"data":{"norad_id":67846,"intl_designator":"2026-033AB","name":"STARLINK-36658","alt_names":[],"object_type":"PAYLOAD","status":"ACTIVE","operator":null,"country":"US","launch_date":"2026-02-16","launch_site_code":"AFETR","launch_vehicle":null,"mission":null,"orbit_class":"UNKNOWN","rcs_meters":null,"size_class":null,"mass_kg":null,"dimensions":null,"purposes":["comms"],"wikipedia_slug":null,"has_3d_model":false,"image_url":null,"decayed_at":null,"tle_current":{"epoch":"2026-05-24T14:55:45.485472Z","epoch_age_seconds":101033,"freshness":"FRESH","line1":"1 67846U 26033AB  26144.62205423  .00009844  00000+0  36670-3 0  9995","line2":"2 67846  42.9994 198.5096 0001832 271.6651  88.3991 15.27585627 16283","mean_motion":15.27585627,"eccentricity":0.0001832,"inclination_deg":42.9994,"raan_deg":198.5096,"arg_perigee_deg":271.6651,"mean_anomaly_deg":88.3991,"bstar":0.0003667,"rev_number":1628,"period_min":94.266401473546,"perigee_km":481.77528062305,"apogee_km":484.28921303509,"semimajor_km":6861.1692468291,"source":"CELESTRAK","updated_at":"2026-05-25T13:38:21.723577Z"}}}